Weather History for Ely, NV

Change the Weather History Date:

Wednesday, August 29, 2012

  Actual Average Record
Temperature  
Mean Temperature 72 °F 63 °F  
Max Temperature 87 °F 82 °F 94 °F (1998)
Min Temperature 56 °F 44 °F 26 °F (1964)
Degree Days  
Heating Degree Days 0 3  
Month to date heating degree days 3 35  
Since 1 June heating degree days 122 233  
Since 1 July heating degree days 6 58  
Cooling Degree Days 7 1  
Month to date cooling degree days 128 75  
Year to date cooling degree days 303 210  
Since 1 June cooling degree days 303 209  
Growing Degree Days 21 (Base 50)    
Moisture  
Dew Point 39 °F    
Average Humidity 32    
Maximum Humidity 45    
Minimum Humidity 18    
Precipitation  
Precipitation T in 0.03 in 0.51 in (2000)
Month to date precipitation 2.45 0.85  
Year to date precipitation 7.50 6.59  
Snow  
Snow 0.00 in 0.00 in 0.00 in (1893)
Month to date snowfall 0.0 0.0  
Since 1 June snowfall T 0.1  
Since 1 July snowfall 0.0 0.0  
Snow Depth 0.00 in    
Sea Level Pressure  
Sea Level Pressure 29.93 in    
Wind  
Wind Speed 11 mph (SSW)    
Max Wind Speed 33 mph    
Max Gust Speed 41 mph    
Visibility 10 miles    
Events Rain , Thunderstorm    
T = Trace of Precipitation, MM = Missing Value Source: NWS Daily Summary

Daily Weather History Graph

Daily Weather History Graph

Search for Another Location

Airport:

Trip Planner

Search our weather history database for the weather conditions in past years. The results will help you decide how hot, cold, wet, or windy it might be!

Date:

Astronomy

Aug. 29, 2012 Rise Set
Actual Time 6:05 AM PDT 7:13 PM PDT
Civil Twilight 5:38 AM PDT 7:41 PM PDT
Nautical Twilight 5:05 AM PDT 8:14 PM PDT
Astronomical Twilight 4:30 AM PDT 8:48 PM PDT
Moon 5:56 PM PDT (8/29) 4:06 AM PDT (8/29)
Length of Visible Light 14h 03m
Length of Day
13h 08m
Waxing Gibbous, 96% of the Moon is Illuminated
Aug 29
Waxing Gibbous
Aug 31
Full
Sep 8
Last Quarter
Sep 15
New
Sep 22
First Quarter

Hourly Weather History & Observations

Time (PDT) Temp. Dew Point Humidity Pressure Visibility Wind Dir Wind Speed Gust Speed Precip Events Conditions
12:53 AM 62.1 °F 28.9 °F 29% 29.88 in 10.0 mi South 10.4 mph - N/A   Clear
1:53 AM 62.1 °F 28.0 °F 28% 29.87 in 10.0 mi South 11.5 mph - N/A   Clear
2:53 AM 62.1 °F 28.9 °F 29% 29.87 in 10.0 mi South 11.5 mph - N/A   Clear
3:53 AM 61.0 °F 30.0 °F 31% 29.87 in 10.0 mi South 11.5 mph - N/A   Clear
5:53 AM 57.0 °F 32.0 °F 39% 29.89 in 10.0 mi South 12.7 mph - N/A   Clear
6:53 AM 57.0 °F 32.0 °F 39% 29.91 in 10.0 mi South 12.7 mph - N/A   Clear
7:53 AM 71.1 °F 34.0 °F 26% 29.91 in 10.0 mi South 12.7 mph - N/A   Partly Cloudy
8:53 AM 77.0 °F 35.1 °F 22% 29.90 in 10.0 mi SSW 10.4 mph - N/A   Clear
9:53 AM 82.0 °F 35.1 °F 18% 29.88 in 10.0 mi Variable 6.9 mph - N/A   Clear
10:53 AM 82.9 °F 37.0 °F 19% 29.88 in 10.0 mi SW 12.7 mph 17.3 mph N/A   Mostly Cloudy
11:53 AM 81.0 °F 37.0 °F 21% 29.88 in 10.0 mi SSW 10.4 mph - N/A   Clear
12:53 PM 82.0 °F 39.9 °F 22% 29.86 in 10.0 mi SW 11.5 mph 19.6 mph 0.01 in   Clear
1:53 PM 84.0 °F 39.9 °F 21% 29.83 in 10.0 mi SW 10.4 mph - N/A   Mostly Cloudy
2:53 PM 84.0 °F 39.0 °F 20% 29.81 in 10.0 mi WNW 5.8 mph - N/A   Scattered Clouds
3:53 PM 87.1 °F 39.9 °F 19% 29.78 in 10.0 mi WSW 16.1 mph 21.9 mph N/A   Mostly Cloudy
4:49 PM 80.6 °F 41.0 °F 24% 30.10 in 10.0 mi South 26.5 mph 32.2 mph N/A Thunderstorm Thunderstorm
4:53 PM 80.1 °F 37.9 °F 22% 29.79 in 10.0 mi South 27.6 mph 38.0 mph N/A Thunderstorm Thunderstorm
5:07 PM 78.8 °F 41.0 °F 26% 30.12 in 10.0 mi SSE 19.6 mph 29.9 mph 0.00 in   Mostly Cloudy
5:37 PM 80.6 °F 37.4 °F 21% 30.10 in 10.0 mi Variable 6.9 mph - 0.00 in Thunderstorm Thunderstorm
5:53 PM 79.0 °F 41.0 °F 26% 29.81 in 10.0 mi SSW 4.6 mph - 0.00 in   Clear
6:25 PM 73.4 °F 44.6 °F 36% 30.10 in 10.0 mi West 5.8 mph - N/A Thunderstorm Thunderstorm
6:39 PM 75.2 °F 39.2 °F 27% 30.11 in 10.0 mi WNW 11.5 mph - N/A   Mostly Cloudy
6:53 PM 77.0 °F 41.0 °F 28% 29.82 in 10.0 mi NW 11.5 mph - N/A   Mostly Cloudy
7:04 PM 75.2 °F 42.8 °F 31% 30.11 in 10.0 mi NW 9.2 mph - N/A Thunderstorm Thunderstorm
7:20 PM 73.4 °F 42.8 °F 33% 30.12 in 10.0 mi NW 3.5 mph - N/A   Scattered Clouds
7:34 PM 75.2 °F 42.8 °F 31% 30.13 in 10.0 mi Calm Calm - N/A Thunderstorm Thunderstorm
7:53 PM 73.0 °F 44.1 °F 35% 29.84 in 10.0 mi South 17.3 mph 32.2 mph N/A Thunderstorm Thunderstorm
8:26 PM 71.6 °F 42.8 °F 35% 30.15 in 10.0 mi ENE 13.8 mph - N/A   Mostly Cloudy
8:53 PM 69.1 °F 48.9 °F 49% 29.85 in 10.0 mi South 5.8 mph - 0.00 in Rain Light Rain
9:53 PM 68.0 °F 46.9 °F 47% 29.83 in 10.0 mi East 5.8 mph - 0.00 in   Mostly Cloudy
10:22 PM 66.2 °F 48.2 °F 52% 30.15 in 10.0 mi WSW 5.8 mph - N/A Thunderstorm Thunderstorm
10:51 PM 69.8 °F 44.6 °F 40% 30.17 in 10.0 mi SW 13.8 mph 18.4 mph N/A   Overcast
10:53 PM 71.1 °F 45.0 °F 39% 29.82 in 10.0 mi SW 15.0 mph 18.4 mph N/A   Overcast
11:53 PM 68.0 °F 46.0 °F 45% 29.84 in 10.0 mi SSE 5.8 mph - N/A   Partly Cloudy